| time (UTC) | temp F | wind direction | speed MPH | gust MPH | rain 1hr in | rain 24hr in | rain mn in | humidity % | barometer mb |
| 20260509043931 | 67 | 343 | 7.0 | 15.0 | 0.00 | 0.03 | 0.03 | 56 | 999.4 |
| 20260509043433 | 67 | 308 | 8.0 | 16.0 | 0.00 | 0.03 | 0.03 | 56 | 999.3 |
| 20260509042931 | 67 | 288 | 8.0 | 16.0 | 0.00 | 0.03 | 0.03 | 57 | 999.2 |
| 20260509042431 | 67 | 343 | 7.0 | 15.0 | 0.00 | 0.03 | 0.03 | 57 | 999.1 |
| 20260509041934 | 67 | 316 | 7.0 | 15.0 | 0.00 | 0.03 | 0.03 | 58 | 999.1 |
| 20260509040931 | 67 | 294 | 8.0 | 14.0 | 0.00 | 0.03 | 0.03 | 57 | 999.1 |
| 20260509040434 | 67 | 311 | 7.0 | 14.0 | 0.00 | 0.03 | 0.03 | 56 | 999.1 |
| 20260509035435 | 67 | 320 | 9.0 | 15.0 | 0.00 | 0.03 | 0.03 | 55 | 998.9 |
| 20260509034939 | 67 | 313 | 10.0 | 19.0 | 0.00 | 0.03 | 0.03 | 55 | 999.0 |
| 20260509034438 | 67 | 298 | 10.0 | 19.0 | 0.00 | 0.03 | 0.03 | 54 | 998.9 |
| 20260509033932 | 67 | 319 | 9.0 | 16.0 | 0.00 | 0.03 | 0.03 | 53 | 998.8 |
| 20260509032933 | 68 | 313 | 7.0 | 14.0 | 0.00 | 0.03 | 0.03 | 53 | 999.0 |
| 20260509032431 | 68 | 325 | 8.0 | 14.0 | 0.00 | 0.03 | 0.03 | 52 | 998.9 |
| 20260509030933 | 68 | 317 | 8.0 | 14.0 | 0.00 | 0.03 | 0.03 | 52 | 998.9 |
| 20260509030432 | 69 | 321 | 9.0 | 16.0 | 0.00 | 0.03 | 0.03 | 51 | 998.9 |
| 20260509025932 | 69 | 309 | 10.0 | 19.0 | 0.00 | 0.03 | 0.03 | 51 | 998.9 |
| 20260509025434 | 69 | 309 | 9.0 | 19.0 | 0.00 | 0.03 | 0.03 | 51 | 998.8 |
| 20260509024935 | 69 | 308 | 9.0 | 19.0 | 0.00 | 0.03 | 0.03 | 50 | 998.8 |
| 20260509024432 | 70 | 323 | 9.0 | 17.0 | 0.00 | 0.03 | 0.03 | 49 | 998.8 |
| 20260509023936 | 70 | 0 | 9.0 | 17.0 | 0.00 | 0.03 | 0.03 | 49 | 998.8 |
| 20260509023434 | 71 | 282 | 10.0 | 21.0 | 0.00 | 0.03 | 0.03 | 48 | 998.8 |
| 20260509022932 | 70 | 325 | 10.0 | 21.0 | 0.00 | 0.03 | 0.03 | 49 | 998.7 |
| 20260509021431 | 70 | 329 | 9.0 | 17.0 | 0.00 | 0.03 | 0.03 | 50 | 998.8 |
| 20260509020933 | 69 | 313 | 9.0 | 17.0 | 0.00 | 0.03 | 0.03 | 50 | 998.9 |
| 20260509020432 | 70 | 300 | 9.0 | 17.0 | 0.00 | 0.03 | 0.03 | 50 | 999.0 |
| 20260509015932 | 69 | 325 | 9.0 | 16.0 | 0.00 | 0.03 | 0.03 | 51 | 999.0 |
| 20260509015431 | 69 | 311 | 9.0 | 18.0 | 0.00 | 0.03 | 0.03 | 51 | 999.1 |
| 20260509014933 | 70 | 333 | 10.0 | 18.0 | 0.00 | 0.03 | 0.03 | 51 | 999.0 |
| 20260509014430 | 70 | 303 | 11.0 | 19.0 | 0.00 | 0.03 | 0.03 | 50 | 999.1 |
| 20260509013928 | 71 | 294 | 11.0 | 19.0 | 0.00 | 0.03 | 0.03 | 48 | 999.0 |
| 20260509012927 | 72 | 313 | 10.0 | 20.0 | 0.00 | 0.03 | 0.03 | 48 | 998.9 |
| 20260509011926 | 71 | 313 | 9.0 | 18.0 | 0.00 | 0.03 | 0.03 | 51 | 999.1 |
| 20260509011428 | 71 | 304 | 9.0 | 19.0 | 0.00 | 0.03 | 0.03 | 52 | 999.3 |
| 20260509010927 | 71 | 308 | 9.0 | 19.0 | 0.00 | 0.03 | 0.03 | 53 | 999.3 |
| 20260509010428 | 71 | 345 | 9.0 | 16.0 | 0.00 | 0.03 | 0.03 | 54 | 999.3 |
| 20260509005422 | 71 | 325 | 9.0 | 16.0 | 0.00 | 0.03 | 0.03 | 53 | 999.4 |
| 20260509004426 | 71 | 322 | 11.0 | 18.0 | 0.00 | 0.03 | 0.03 | 53 | 999.7 |
| 20260509003927 | 71 | 301 | 10.0 | 17.0 | 0.00 | 0.03 | 0.03 | 53 | 999.7 |
| 20260509003422 | 71 | 0 | 9.0 | 18.0 | 0.00 | 0.03 | 0.03 | 53 | 1000.1 |
| 20260509002921 | 71 | 322 | 10.0 | 18.0 | 0.00 | 0.03 | 0.03 | 53 | 1000.2 |
| 20260509002422 | 70 | 317 | 10.0 | 19.0 | 0.00 | 0.03 | 0.03 | 54 | 1000.1 |
| 20260509001921 | 70 | 350 | 11.0 | 20.0 | 0.00 | 0.03 | 0.03 | 54 | 1000.1 |
| 20260509001423 | 70 | 308 | 11.0 | 20.0 | 0.00 | 0.03 | 0.03 | 54 | 1000.0 |
| 20260508235921 | 71 | 326 | 10.0 | 18.0 | 0.00 | 0.03 | 0.03 | 55 | 1000.4 |
| 20260508235421 | 70 | 5 | 11.0 | 18.0 | 0.00 | 0.03 | 0.03 | 55 | 1000.4 |
| 20260508234916 | 70 | 332 | 11.0 | 18.0 | 0.00 | 0.03 | 0.03 | 55 | 1000.6 |
| 20260508234416 | 70 | 304 | 10.0 | 20.0 | 0.00 | 0.03 | 0.03 | 54 | 1000.6 |
| 20260508233917 | 70 | 329 | 10.0 | 20.0 | 0.00 | 0.03 | 0.03 | 54 | 1000.8 |
| 20260508232417 | 70 | 294 | 8.0 | 18.0 | 0.00 | 0.03 | 0.03 | 55 | 1001.2 |
| 20260508231919 | 70 | 320 | 8.0 | 14.0 | 0.00 | 0.03 | 0.03 | 55 | 1001.4 |
| 20260508230917 | 70 | 336 | 8.0 | 13.0 | 0.00 | 0.03 | 0.03 | 56 | 1001.4 |
| 20260508230417 | 69 | 340 | 8.0 | 13.0 | 0.00 | 0.03 | 0.03 | 56 | 1001.4 |
| 20260508225917 | 69 | 5 | 7.0 | 18.0 | 0.00 | 0.03 | 0.03 | 58 | 1001.3 |
| 20260508224919 | 69 | 325 | 9.0 | 17.0 | 0.00 | 0.03 | 0.03 | 57 | 1001.6 |
| 20260508224418 | 69 | 309 | 10.0 | 17.0 | 0.00 | 0.03 | 0.03 | 57 | 1001.7 |
| 20260508223919 | 68 | 342 | 9.0 | 17.0 | 0.00 | 0.03 | 0.03 | 58 | 1001.7 |
| 20260508223428 | 68 | 336 | 8.0 | 16.0 | 0.00 | 0.03 | 0.03 | 58 | 1001.7 |
| 20260508222418 | 68 | 327 | 8.0 | 16.0 | 0.00 | 0.03 | 0.03 | 60 | 1001.7 |
| 20260508221917 | 68 | 311 | 9.0 | 16.0 | 0.00 | 0.03 | 0.03 | 59 | 1001.8 |
| 20260508221415 | 67 | 332 | 9.0 | 15.0 | 0.00 | 0.03 | 0.03 | 59 | 1002.0 |
| 20260508220916 | 67 | 313 | 9.0 | 17.0 | 0.00 | 0.03 | 0.03 | 59 | 1001.9 |
| 20260508220415 | 67 | 307 | 10.0 | 19.0 | 0.00 | 0.03 | 0.03 | 60 | 1001.9 |
| 20260508215914 | 67 | 331 | 11.0 | 19.0 | 0.00 | 0.03 | 0.03 | 60 | 1001.8 |
| 20260508214414 | 67 | 306 | 10.0 | 15.0 | 0.00 | 0.03 | 0.03 | 60 | 1002.0 |
| 20260508213914 | 67 | 26 | 10.0 | 16.0 | 0.00 | 0.03 | 0.03 | 60 | 1001.9 |
| 20260508213414 | 67 | 346 | 9.0 | 16.0 | 0.00 | 0.03 | 0.03 | 60 | 1002.0 |
| 20260508212411 | 66 | 328 | 10.0 | 18.0 | 0.00 | 0.03 | 0.03 | 60 | 1001.9 |
| 20260508211913 | 66 | 334 | 10.0 | 18.0 | 0.00 | 0.03 | 0.03 | 60 | 1001.9 |
| 20260508211414 | 66 | 312 | 9.0 | 16.0 | 0.00 | 0.03 | 0.03 | 61 | 1001.9 |
| 20260508210910 | 66 | 355 | 8.0 | 16.0 | 0.00 | 0.03 | 0.03 | 62 | 1002.0 |
| 20260508210408 | 66 | 331 | 8.0 | 17.0 | 0.00 | 0.03 | 0.03 | 62 | 1001.9 |
| 20260508205905 | 66 | 325 | 8.0 | 17.0 | 0.00 | 0.03 | 0.03 | 62 | 1002.2 |
| 20260508205413 | 65 | 347 | 7.0 | 14.0 | 0.00 | 0.03 | 0.03 | 63 | 1002.0 |
| 20260508204906 | 65 | 324 | 6.0 | 14.0 | 0.00 | 0.03 | 0.03 | 64 | 1002.1 |
| 20260508204407 | 64 | 317 | 6.0 | 12.0 | 0.00 | 0.03 | 0.03 | 65 | 1002.1 |
| 20260508203904 | 64 | 321 | 6.0 | 12.0 | 0.00 | 0.03 | 0.03 | 64 | 1002.3 |
| 20260508203404 | 64 | 299 | 4.0 | 11.0 | 0.00 | 0.03 | 0.03 | 65 | 1002.3 |
| 20260508202904 | 64 | 306 | 3.0 | 8.0 | 0.00 | 0.03 | 0.03 | 67 | 1002.2 |
| 20260508202406 | 64 | 342 | 3.0 | 6.0 | 0.00 | 0.03 | 0.03 | 69 | 1002.2 |
| 20260508200905 | 63 | 338 | 4.0 | 9.0 | 0.00 | 0.03 | 0.03 | 69 | 1002.4 |
| 20260508200404 | 63 | 320 | 3.0 | 9.0 | 0.00 | 0.03 | 0.03 | 69 | 1002.3 |
| 20260508195902 | 62 | 340 | 3.0 | 6.0 | 0.00 | 0.03 | 0.03 | 71 | 1002.6 |
| 20260508195402 | 62 | 321 | 3.0 | 10.0 | 0.00 | 0.03 | 0.03 | 71 | 1002.5 |
| 20260508194404 | 61 | 339 | 3.0 | 9.0 | 0.00 | 0.03 | 0.03 | 73 | 1002.3 |
| 20260508193856 | 61 | 355 | 3.0 | 5.0 | 0.00 | 0.03 | 0.03 | 73 | 1002.3 |
| 20260508193400 | 61 | 350 | 3.0 | 5.0 | 0.00 | 0.03 | 0.03 | 73 | 1002.2 |
| 20260508192858 | 61 | 331 | 3.0 | 6.0 | 0.00 | 0.03 | 0.03 | 73 | 1002.1 |
| 20260508192402 | 61 | 343 | 3.0 | 9.0 | 0.00 | 0.03 | 0.03 | 73 | 1002.3 |
| 20260508191858 | 60 | 5 | 3.0 | 9.0 | 0.00 | 0.03 | 0.03 | 74 | 1002.2 |
| 20260508191401 | 60 | 11 | 2.0 | 6.0 | 0.00 | 0.03 | 0.03 | 75 | 1002.0 |
| 20260508190859 | 59 | 338 | 1.0 | 4.0 | 0.00 | 0.03 | 0.03 | 74 | 1002.0 |
| 20260508190400 | 59 | 310 | 0.0 | 2.0 | 0.00 | 0.03 | 0.03 | 73 | 1002.0 |
| 20260508185858 | 60 | 310 | 0.0 | 2.0 | 0.00 | 0.03 | 0.03 | 72 | 1002.0 |
| 20260508185401 | 60 | 310 | 0.0 | 2.0 | 0.00 | 0.03 | 0.03 | 71 | 1002.0 |
| 20260508184858 | 61 | 310 | 1.0 | 2.0 | 0.00 | 0.03 | 0.03 | 70 | 1002.0 |
| 20260508184359 | 61 | 311 | 1.0 | 4.0 | 0.00 | 0.03 | 0.03 | 69 | 1001.9 |
| 20260508183857 | 62 | 310 | 2.0 | 5.0 | 0.00 | 0.03 | 0.03 | 68 | 1001.8 |
| 20260508183401 | 62 | 311 | 3.0 | 7.0 | 0.00 | 0.03 | 0.03 | 68 | 1001.6 |
| 20260508182857 | 61 | 318 | 3.0 | 7.0 | 0.00 | 0.03 | 0.03 | 69 | 1001.5 |
| 20260508182354 | 61 | 315 | 3.0 | 7.0 | 0.00 | 0.03 | 0.03 | 69 | 1001.5 |
| 20260508181853 | 61 | 298 | 3.0 | 6.0 | 0.00 | 0.03 | 0.03 | 70 | 1001.6 |
| 20260508180352 | 61 | 317 | 3.0 | 6.0 | 0.00 | 0.03 | 0.03 | 71 | 1001.7 |
| 20260508175851 | 61 | 355 | 3.0 | 8.0 | 0.00 | 0.03 | 0.03 | 70 | 1001.7 |
| 20260508174848 | 62 | 345 | 4.0 | 9.0 | 0.00 | 0.03 | 0.03 | 71 | 1001.6 |
| 20260508174351 | 62 | 338 | 3.0 | 8.0 | 0.00 | 0.03 | 0.03 | 71 | 1001.7 |
| 20260508173848 | 62 | 321 | 3.0 | 6.0 | 0.00 | 0.03 | 0.03 | 71 | 1001.8 |
| 20260508173349 | 62 | 304 | 3.0 | 7.0 | 0.00 | 0.03 | 0.03 | 71 | 1001.8 |
| 20260508172848 | 63 | 283 | 3.0 | 7.0 | 0.00 | 0.03 | 0.03 | 72 | 1001.7 |
| 20260508172351 | 63 | 311 | 3.0 | 7.0 | 0.00 | 0.03 | 0.03 | 72 | 1001.6 |
| 20260508171847 | 63 | 306 | 3.0 | 7.0 | 0.00 | 0.03 | 0.03 | 72 | 1001.9 |
| 20260508171347 | 64 | 323 | 4.0 | 10.0 | 0.00 | 0.03 | 0.03 | 72 | 1001.8 |
| 20260508170846 | 64 | 304 | 4.0 | 10.0 | 0.00 | 0.03 | 0.03 | 72 | 1001.8 |
| 20260508170349 | 64 | 23 | 3.0 | 6.0 | 0.00 | 0.03 | 0.03 | 74 | 1001.6 |
| 20260508165846 | 64 | 321 | 3.0 | 8.0 | 0.00 | 0.03 | 0.03 | 73 | 1001.7 |
| 20260508165346 | 65 | 315 | 4.0 | 9.0 | 0.00 | 0.03 | 0.03 | 73 | 1001.5 |
| 20260508164849 | 65 | 315 | 4.0 | 11.0 | 0.00 | 0.03 | 0.03 | 73 | 1001.3 |
| 20260508164347 | 64 | 334 | 4.0 | 11.0 | 0.00 | 0.03 | 0.03 | 74 | 1001.2 |
| 20260508163848 | 64 | 310 | 4.0 | 12.0 | 0.00 | 0.03 | 0.03 | 75 | 1001.1 |
| 20260508163345 | 64 | 355 | 5.0 | 12.0 | 0.00 | 0.03 | 0.03 | 80 | 1001.2 |
| 20260508162854 | 64 | 331 | 6.0 | 13.0 | 0.00 | 0.03 | 0.03 | 81 | 1001.5 |
| 20260508162350 | 64 | 12 | 7.0 | 13.0 | 0.00 | 0.03 | 0.03 | 81 | 1001.5 |
| 20260508161849 | 64 | 38 | 8.0 | 14.0 | 0.00 | 0.03 | 0.03 | 81 | 1001.5 |
| 20260508160844 | 64 | 10 | 6.0 | 14.0 | 0.00 | 0.03 | 0.03 | 80 | 1001.6 |
| 20260508155343 | 65 | 65 | 8.0 | 14.0 | 0.00 | 0.03 | 0.03 | 79 | 1001.8 |
| 20260508154841 | 65 | 30 | 8.0 | 15.0 | 0.00 | 0.03 | 0.03 | 78 | 1001.7 |
| 20260508154342 | 65 | 0 | 8.0 | 17.0 | 0.00 | 0.03 | 0.03 | 78 | 1001.9 |
| 20260508153841 | 65 | 340 | 8.0 | 17.0 | 0.00 | 0.03 | 0.03 | 79 | 1001.9 |
| 20260508153343 | 64 | 5 | 8.0 | 16.0 | 0.01 | 0.03 | 0.03 | 79 | 1001.9 |
| 20260508152842 | 64 | 30 | 8.0 | 20.0 | 0.01 | 0.03 | 0.03 | 79 | 1002.0 |
| 20260508152342 | 64 | 19 | 7.0 | 20.0 | 0.02 | 0.03 | 0.03 | 80 | 1002.0 |
| 20260508151841 | 63 | 355 | 6.0 | 13.0 | 0.02 | 0.03 | 0.03 | 81 | 1002.5 |
| 20260508150845 | 63 | 0 | 6.0 | 12.0 | 0.02 | 0.03 | 0.03 | 81 | 1002.0 |
| 20260508150341 | 63 | 337 | 7.0 | 12.0 | 0.02 | 0.03 | 0.03 | 80 | 1002.0 |
| 20260508145843 | 64 | 5 | 6.0 | 12.0 | 0.02 | 0.03 | 0.03 | 80 | 1002.2 |
| 20260508145343 | 64 | 5 | 6.0 | 11.0 | 0.02 | 0.03 | 0.03 | 79 | 1002.1 |
| 20260508144841 | 64 | 24 | 6.0 | 15.0 | 0.02 | 0.03 | 0.03 | 79 | 1002.1 |
| 20260508144341 | 64 | 22 | 6.0 | 15.0 | 0.02 | 0.03 | 0.03 | 79 | 1002.3 |
| 20260508143339 | 65 | 0 | 7.0 | 14.0 | 0.01 | 0.02 | 0.02 | 77 | 1002.3 |
| 20260508142842 | 65 | 22 | 7.0 | 14.0 | 0.01 | 0.02 | 0.02 | 76 | 1002.5 |
| 20260508141839 | 65 | 344 | 7.0 | 17.0 | 0.00 | 0.02 | 0.02 | 76 | 1003.3 |
| 20260508141341 | 65 | 355 | 9.0 | 19.0 | 0.00 | 0.02 | 0.02 | 77 | 1002.8 |
| 20260508140840 | 65 | 21 | 9.0 | 20.0 | 0.00 | 0.02 | 0.02 | 77 | 1002.5 |
| 20260508140340 | 65 | 10 | 10.0 | 20.0 | 0.01 | 0.02 | 0.02 | 77 | 1002.3 |
| 20260508135839 | 65 | 10 | 10.0 | 21.0 | 0.02 | 0.02 | 0.02 | 77 | 1002.2 |
| 20260508135337 | 64 | 0 | 10.0 | 21.0 | 0.02 | 0.02 | 0.02 | 79 | 1002.4 |
| 20260508134836 | 64 | 5 | 9.0 | 18.0 | 0.02 | 0.02 | 0.02 | 81 | 1002.4 |
| 20260508134334 | 63 | 10 | 9.0 | 17.0 | 0.02 | 0.02 | 0.02 | 82 | 1002.8 |
| 20260508133337 | 62 | 355 | 9.0 | 18.0 | 0.02 | 0.02 | 0.02 | 83 | 1002.7 |
| 20260508132333 | 62 | 13 | 7.0 | 14.0 | 0.02 | 0.02 | 0.02 | 82 | 1002.9 |
| 20260508131835 | 63 | 339 | 7.0 | 14.0 | 0.02 | 0.02 | 0.02 | 82 | 1002.6 |
| 20260508131332 | 63 | 5 | 7.0 | 14.0 | 0.02 | 0.02 | 0.02 | 81 | 1002.5 |
| 20260508130832 | 64 | 320 | 8.0 | 16.0 | 0.02 | 0.02 | 0.02 | 80 | 1002.4 |
| 20260508130334 | 65 | 55 | 7.0 | 16.0 | 0.01 | 0.01 | 0.01 | 77 | 1002.5 |
| 20260508125832 | 66 | 28 | 7.0 | 13.0 | 0.00 | 0.00 | 0.00 | 74 | 1003.5 |
| 20260508125332 | 66 | 50 | 7.0 | 13.0 | 0.00 | 0.00 | 0.00 | 71 | 1004.0 |
| 20260508124834 | 67 | 10 | 6.0 | 12.0 | 0.00 | 0.00 | 0.00 | 71 | 1004.0 |
| 20260508124334 | 67 | 355 | 5.0 | 13.0 | 0.00 | 0.00 | 0.00 | 71 | 1004.3 |
| 20260508123832 | 66 | 13 | 6.0 | 13.0 | 0.00 | 0.00 | 0.00 | 71 | 1004.5 |
| 20260508123331 | 66 | 339 | 6.0 | 13.0 | 0.00 | 0.00 | 0.00 | 72 | 1004.4 |
| 20260508122832 | 66 | 11 | 6.0 | 14.0 | 0.00 | 0.00 | 0.00 | 73 | 1004.3 |
| 20260508122334 | 65 | 22 | 6.0 | 14.0 | 0.00 | 0.00 | 0.00 | 73 | 1004.2 |
| 20260508121831 | 65 | 15 | 6.0 | 14.0 | 0.00 | 0.00 | 0.00 | 73 | 1004.2 |
| 20260508121331 | 65 | 22 | 7.0 | 14.0 | 0.00 | 0.00 | 0.00 | 73 | 1004.1 |
| 20260508120831 | 65 | 351 | 7.0 | 14.0 | 0.00 | 0.00 | 0.00 | 74 | 1004.3 |
| 20260508120327 | 65 | 15 | 7.0 | 14.0 | 0.00 | 0.00 | 0.00 | 74 | 1004.5 |
| 20260508115828 | 65 | 324 | 8.0 | 15.0 | 0.00 | 0.00 | 0.00 | 73 | 1004.6 |
| 20260508115327 | 66 | 5 | 9.0 | 15.0 | 0.00 | 0.00 | 0.00 | 72 | 1004.6 |
| 20260508113825 | 66 | 330 | 8.0 | 18.0 | 0.00 | 0.00 | 0.00 | 70 | 1004.9 |
| 20260508113322 | 67 | 13 | 8.0 | 18.0 | 0.00 | 0.00 | 0.00 | 69 | 1004.9 |
| 20260508111821 | 67 | 0 | 10.0 | 19.0 | 0.00 | 0.00 | 0.00 | 68 | 1005.1 |
| 20260508111324 | 67 | 355 | 11.0 | 18.0 | 0.00 | 0.00 | 0.00 | 68 | 1004.9 |
| 20260508110822 | 67 | 5 | 11.0 | 22.0 | 0.00 | 0.00 | 0.00 | 68 | 1004.6 |
| 20260508110334 | 67 | 25 | 10.0 | 22.0 | 0.00 | 0.00 | 0.00 | 68 | 1004.6 |
| 20260508105818 | 67 | 38 | 11.0 | 21.0 | 0.00 | 0.00 | 0.00 | 68 | 1004.6 |
| 20260508105315 | 67 | 5 | 11.0 | 23.0 | 0.00 | 0.00 | 0.00 | 67 | 1004.4 |
| 20260508104811 | 67 | 350 | 11.0 | 23.0 | 0.00 | 0.00 | 0.00 | 68 | 1004.6 |
| 20260508104307 | 67 | 13 | 11.0 | 19.0 | 0.00 | 0.00 | 0.00 | 68 | 1005.1 |
| 20260508103811 | 67 | 314 | 11.0 | 21.0 | 0.00 | 0.00 | 0.00 | 68 | 1005.3 |
| 20260508103308 | 67 | 28 | 11.0 | 23.0 | 0.00 | 0.00 | 0.00 | 69 | 1005.5 |
| 20260508102813 | 66 | 10 | 9.0 | 23.0 | 0.00 | 0.00 | 0.00 | 70 | 1005.5 |
| 20260508102309 | 65 | 336 | 6.0 | 14.0 | 0.00 | 0.00 | 0.00 | 73 | 1005.8 |
| 20260508101810 | 63 | 15 | 5.0 | 11.0 | 0.00 | 0.00 | 0.00 | 77 | 1005.8 |
| 20260508101309 | 63 | 24 | 7.0 | 15.0 | 0.00 | 0.00 | 0.00 | 79 | 1005.9 |
| 20260508100808 | 63 | 35 | 8.0 | 15.0 | 0.00 | 0.00 | 0.00 | 78 | 1006.1 |
| 20260508100309 | 63 | 55 | 7.0 | 15.0 | 0.00 | 0.00 | 0.00 | 78 | 1006.2 |
| 20260508095808 | 63 | 28 | 5.0 | 15.0 | 0.00 | 0.00 | 0.00 | 78 | 1006.4 |
| 20260508095308 | 63 | 30 | 5.0 | 12.0 | 0.00 | 0.00 | 0.00 | 78 | 1006.4 |
| 20260508094809 | 63 | 0 | 6.0 | 15.0 | 0.00 | 0.00 | 0.00 | 78 | 1006.4 |
| 20260508094308 | 63 | 36 | 8.0 | 15.0 | 0.00 | 0.00 | 0.00 | 78 | 1006.3 |
| 20260508093805 | 63 | 43 | 9.0 | 17.0 | 0.00 | 0.00 | 0.00 | 77 | 1006.4 |
| 20260508093306 | 64 | 22 | 7.0 | 17.0 | 0.00 | 0.00 | 0.00 | 76 | 1006.4 |
| 20260508092313 | 64 | 32 | 5.0 | 12.0 | 0.00 | 0.00 | 0.00 | 75 | 1006.2 |
| 20260508091806 | 64 | 16 | 6.0 | 15.0 | 0.00 | 0.00 | 0.00 | 75 | 1006.3 |
| 20260508091303 | 64 | 17 | 7.0 | 15.0 | 0.00 | 0.00 | 0.00 | 74 | 1006.4 |
| 20260508090804 | 64 | 338 | 8.0 | 15.0 | 0.00 | 0.00 | 0.00 | 74 | 1006.4 |
| 20260508090304 | 64 | 32 | 7.0 | 15.0 | 0.00 | 0.00 | 0.00 | 74 | 1006.3 |
| 20260508085804 | 64 | 24 | 7.0 | 15.0 | 0.00 | 0.00 | 0.00 | 74 | 1006.2 |
| 20260508085307 | 64 | 19 | 7.0 | 15.0 | 0.00 | 0.00 | 0.00 | 74 | 1006.2 |
| 20260508084805 | 64 | 68 | 6.0 | 12.0 | 0.00 | 0.00 | 0.00 | 74 | 1006.4 |
| 20260508084302 | 65 | 23 | 6.0 | 12.0 | 0.00 | 0.00 | 0.00 | 73 | 1006.4 |
| 20260508083801 | 65 | 16 | 8.0 | 18.0 | 0.00 | 0.00 | 0.00 | 72 | 1006.2 |
| 20260508083302 | 66 | 5 | 12.0 | 25.0 | 0.00 | 0.00 | 0.00 | 70 | 1006.0 |
| 20260508082801 | 66 | 31 | 12.0 | 25.0 | 0.00 | 0.00 | 0.00 | 69 | 1005.7 |
| 20260508082306 | 66 | 19 | 11.0 | 22.0 | 0.00 | 0.00 | 0.00 | 68 | 1005.5 |
| 20260508081258 | 66 | 40 | 10.0 | 22.0 | 0.00 | 0.00 | 0.00 | 68 | 1006.0 |
| 20260508080800 | 65 | 13 | 9.0 | 20.0 | 0.00 | 0.00 | 0.00 | 69 | 1006.0 |
| 20260508080258 | 65 | 355 | 8.0 | 18.0 | 0.00 | 0.00 | 0.00 | 70 | 1006.1 |
| 20260508075257 | 65 | 355 | 7.0 | 17.0 | 0.00 | 0.00 | 0.00 | 70 | 1006.6 |
| 20260508074800 | 65 | 0 | 8.0 | 17.0 | 0.00 | 0.00 | 0.00 | 70 | 1006.8 |
| 20260508074253 | 66 | 5 | 8.0 | 21.0 | 0.00 | 0.00 | 0.00 | 69 | 1007.1 |
| 20260508073753 | 66 | 21 | 8.0 | 21.0 | 0.00 | 0.00 | 0.00 | 68 | 1007.3 |
| 20260508073253 | 66 | 11 | 9.0 | 19.0 | 0.00 | 0.00 | 0.00 | 68 | 1007.3 |
| 20260508072754 | 66 | 355 | 8.0 | 17.0 | 0.00 | 0.00 | 0.00 | 69 | 1007.3 |
| 20260508072254 | 65 | 0 | 10.0 | 22.0 | 0.00 | 0.00 | 0.00 | 69 | 1007.5 |
| 20260508071754 | 65 | 350 | 11.0 | 22.0 | 0.00 | 0.00 | 0.00 | 70 | 1007.4 |
| 20260508071254 | 65 | 5 | 10.0 | 18.0 | 0.00 | 0.00 | 0.00 | 71 | 1007.4 |
| 20260508070753 | 65 | 12 | 9.0 | 18.0 | 0.00 | 0.00 | 0.00 | 72 | 1007.4 |
| 20260508070253 | 64 | 69 | 7.0 | 14.0 | 0.00 | 0.00 | 0.00 | 73 | 1007.2 |
| 20260508065752 | 64 | 30 | 6.0 | 13.0 | 0.00 | 0.00 | 0.00 | 73 | 1007.5 |
| 20260508065254 | 64 | 19 | 7.0 | 15.0 | 0.00 | 0.00 | 0.00 | 73 | 1007.6 |
| 20260508064751 | 65 | 32 | 7.0 | 15.0 | 0.00 | 0.00 | 0.00 | 72 | 1007.7 |
| 20260508064255 | 65 | 9 | 9.0 | 18.0 | 0.00 | 0.00 | 0.00 | 72 | 1007.8 |
| 20260508063751 | 65 | 53 | 9.0 | 18.0 | 0.00 | 0.00 | 0.00 | 71 | 1008.0 |
| 20260508063254 | 65 | 49 | 8.0 | 16.0 | 0.00 | 0.00 | 0.00 | 71 | 1008.2 |
| 20260508062751 | 65 | 79 | 10.0 | 20.0 | 0.00 | 0.00 | 0.00 | 71 | 1008.2 |
| 20260508062252 | 65 | 44 | 11.0 | 20.0 | 0.00 | 0.00 | 0.00 | 71 | 1008.5 |
| 20260508061250 | 64 | 355 | 8.0 | 17.0 | 0.00 | 0.00 | 0.00 | 72 | 1008.5 |
| 20260508060749 | 64 | 41 | 8.0 | 17.0 | 0.00 | 0.00 | 0.00 | 72 | 1008.6 |
| 20260508060251 | 64 | 32 | 7.0 | 17.0 | 0.00 | 0.00 | 0.00 | 72 | 1008.6 |
| 20260508055751 | 65 | 0 | 6.0 | 13.0 | 0.00 | 0.00 | 0.00 | 72 | 1008.8 |
| 20260508055250 | 65 | 50 | 8.0 | 16.0 | 0.00 | 0.00 | 0.00 | 71 | 1009.0 |
| 20260508054750 | 65 | 22 | 10.0 | 22.0 | 0.00 | 0.00 | 0.00 | 70 | 1009.0 |
| 20260508054250 | 65 | 351 | 12.0 | 22.0 | 0.00 | 0.00 | 0.00 | 70 | 1008.9 |
| 20260508053748 | 65 | 17 | 11.0 | 21.0 | 0.00 | 0.00 | 0.00 | 71 | 1008.9 |
| 20260508053250 | 65 | 17 | 10.0 | 21.0 | 0.00 | 0.00 | 0.00 | 72 | 1008.9 |
| 20260508052746 | 65 | 58 | 10.0 | 21.0 | 0.00 | 0.00 | 0.00 | 72 | 1008.9 |
| 20260508052244 | 65 | 26 | 11.0 | 21.0 | 0.00 | 0.00 | 0.00 | 71 | 1008.8 |
| 20260508051742 | 65 | 14 | 10.0 | 19.0 | 0.00 | 0.00 | 0.00 | 71 | 1008.9 |
| 20260508050737 | 65 | 344 | 8.0 | 17.0 | 0.00 | 0.00 | 0.00 | 70 | 1009.6 |
| 20260508050234 | 65 | 5 | 7.0 | 14.0 | 0.00 | 0.00 | 0.00 | 71 | 1009.8 |
| 20260508045734 | 66 | 5 | 6.0 | 15.0 | 0.00 | 0.00 | 0.00 | 70 | 1010.1 |
| 20260508045234 | 66 | 343 | 6.0 | 15.0 | 0.00 | 0.00 | 0.00 | 68 | 1010.0 |
| 20260508044734 | 66 | 30 | 8.0 | 19.0 | 0.00 | 0.00 | 0.00 | 68 | 1009.8 |